Hourly Data Report for February 20, 2017

All times are specified in Local Standard Time (LST). Add 1 hour to adjust for Daylight Saving Time where and when it is observed.

TORONTO CITY
ONTARIO

43°40'00.000" N
79°24'00.000" W
112.50 m
6158355
71508
XTO

Download Data

Hourly Data (February 2017)
Hourly Data Report for February 20, 2017
TIME Temp Definition
°C
Dew Point Definition
°C
Rel Hum Definition
%
Wind Dir Definition
10's deg

Wind Spd Definition
km/h
Visibility Definition
km
Stn Press Definition
kPa
Hmdx Definition


Wind Chill Definition


Weather Definition


00:00 3.9 -1.1 70 LegendMM LegendMM   100.70     LegendNANA
01:00 3.5 -1.1 72 LegendMM LegendMM   100.75     LegendNANA
02:00 3.3 -1.1 73 LegendMM LegendMM   100.84     LegendNANA
03:00 2.7 -1.2 76 LegendMM LegendMM   100.90     LegendNANA
04:00 2.8 -1.8 71 LegendMM LegendMM   100.96     LegendNANA
05:00 2.2 -2.7 70 LegendMM LegendMM   101.10     LegendNANA
06:00 1.3 -3.5 71 LegendMM LegendMM   101.18     LegendNANA
07:00 0.8 -4.0 70 LegendMM LegendMM   101.24     LegendNANA
08:00 0.6 -4.1 70 LegendMM LegendMM   101.36     LegendNANA
09:00 1.6 -4.5 64 LegendMM LegendMM   101.45     LegendNANA
10:00 2.8 -5.0 56 LegendMM LegendMM   101.48     LegendNANA
11:00 3.8 -5.8 49 LegendMM LegendMM   101.52     LegendNANA
12:00 3.9 -3.8 57 LegendMM LegendMM   101.46     LegendNANA
13:00 4.0 -3.3 59 LegendMM LegendMM   101.37     LegendNANA
14:00 3.8 -3.7 58 LegendMM LegendMM   101.41     LegendNANA
15:00 3.2 -3.0 64 LegendMM LegendMM   101.40     LegendNANA
16:00 2.4 -3.7 64 LegendMM LegendMM   101.43     LegendNANA
17:00 1.9 -3.0 70 LegendMM LegendMM   101.39     LegendNANA
18:00 1.7 -3.8 67 LegendMM LegendMM   101.39     LegendNANA
19:00 1.7 -3.6 68 LegendMM LegendMM   101.42     LegendNANA
20:00 1.7 -4.1 65 LegendMM LegendMM   101.39     LegendNANA
21:00 1.9 -5.1 60 LegendMM LegendMM   101.36     LegendNANA
22:00 2.2 -4.6 61 LegendMM LegendMM   101.25     LegendNANA
23:00 2.2 -5.5 57 LegendMM LegendMM   101.17     LegendNANA

Notes on Data Quality.

Legend

  • E = Estimated
  • M = Missing
  • NA = Not Available
Date modified: